Flag for Germany Weather past 2 weeks in Schwäbisch Gmünd, Baden-Württemberg, Germany

Now
36 °F

Clear.


Feels Like: 31 °F
Forecast: 36 / 58 °F
Wind: 6 mph from East

Location: Stoetten

Current Time: Apr 19, 2015 at 1:57:51 AM

Latest Report: Apr 19, 2015 at 1:00 AM


Visibility: 22 mi

Pressure: 30.26 "Hg

Humidity: 62%

Dew point: 24 °F

Location of Schwäbisch GmündLocation

Historic Weather in Schwäbisch Gmünd — Graph

°F

Schwäbisch Gmünd temperature yesterday

Maximum temperature yesterday: 48 °F (at 3:00 PM)
Minimum temperature yesterday: 34 °F (at 6:00 AM)
Average temperature yesterday: 41 °F

Past Weeks' High & Low Weather Summary

 TemperatureHumidityPressure
High70 °F (Apr 15, 5:00 PM)100% (Apr 4, 7:00 AM)30.65 "Hg (Apr 4, 7:00 AM)
Low28 °F (Apr 5, 7:00 AM)24% (Apr 15, 5:00 PM)29.87 "Hg (Apr 17, 3:00 PM)
Average47 °F62%30.25 "Hg
* Reported Apr 4 1:00 AM — Apr 19 1:00 AM, Schwäbisch Gmünd, Weather by CustomWeather, © 2015

Note: Actual official high and low records may vary slightly from our data, if they occured in-between our weather recording intervals... More about our weather records

Advertising

Schwäbisch Gmünd weather history for previous 24 hours

 ConditionsComfort  
Time TempWeatherWind HumidityBarometerVisibility
1:00 AM
Sun, Apr 19
36 °FClear.6 mph62%30.26 "Hg22 mi
12:00 AM37 °FClear.7 mph59%30.26 "Hg25 mi
11:00 PM
Sat, Apr 18
38 °FClear.6 mph60%30.27 "Hg25 mi
10:00 PM39 °FClear.5 mph59%30.26 "Hg31 mi
9:00 PM40 °FClear.3 mph57%30.24 "Hg47 mi
8:00 PM43 °FSunny.5 mph50%30.23 "Hg47 mi
7:00 PM46 °FPassing clouds.6 mph41%30.21 "Hg47 mi
6:00 PM47 °FPassing clouds.5 mph43%30.20 "Hg47 mi
5:00 PM48 °FScattered clouds.5 mph43%30.20 "Hg47 mi
4:00 PM47 °FScattered clouds.5 mph41%30.22 "Hg47 mi
3:00 PM48 °FScattered clouds.5 mph49%30.22 "Hg47 mi
2:00 PM46 °FScattered clouds.6 mph49%30.23 "Hg47 mi
1:00 PM46 °FScattered clouds.6 mph51%30.23 "Hg47 mi
12:00 PM42 °FScattered clouds.6 mph54%30.25 "Hg47 mi
11:00 AM41 °FPassing clouds.5 mph64%30.24 "Hg47 mi
10:00 AM43 °FPassing clouds.5 mph63%30.22 "Hg47 mi
9:00 AM40 °FPassing clouds.5 mph65%30.22 "Hg40 mi
8:00 AM38 °FPassing clouds.3 mph72%30.22 "Hg37 mi
7:00 AM35 °FPassing clouds.3 mph82%30.22 "Hg31 mi
6:00 AM34 °FPassing clouds.3 mph84%30.22 "Hg19 mi
5:00 AM35 °FOvercast.3 mph82%30.20 "Hg19 mi
4:00 AM35 °FOvercast.3 mph80%30.19 "Hg22 mi
3:00 AM37 °FOvercast.5 mph75%30.17 "Hg25 mi
2:00 AM37 °FOvercast.5 mph79%30.16 "Hg25 mi
1:00 AM39 °FOvercast.6 mph78%30.14 "Hg19 mi
Weather by CustomWeather, © 2015

See weather overviewHow to use our weather pages